This is the latest recevied weather packets stored in our database for station/object SQ6RR-12. If no packets are shown the sender has not sent any weather packets the latest 10 day(s).
| Time | Temp. | Humidity | Pressure | Rain* | Wind** | Luminosity | Snow |
|---|---|---|---|---|---|---|---|
| 1777666902 | 7.22° C | 10% | 1027.5 hPa | 0 mm | - | - | - |
| 1777666647 | 7.22° C | 10% | 1027.5 hPa | 0 mm | - | - | - |
| 1777666393 | 7.78° C | 10% | 1027.5 hPa | 0 mm | - | - | - |
| 1777666138 | 7.78° C | 10% | 1027.5 hPa | 0 mm | - | - | - |
| 1777665852 | 7.78° C | 10% | 1027.5 hPa | 0 mm | - | - | - |
| 1777665598 | 8.33° C | 99% | 1027.5 hPa | 0 mm | - | - | - |
| 1777665338 | 8.33° C | 95% | 1027.5 hPa | 0 mm | - | - | - |
| 1777665067 | 8.89° C | 93% | 1027.5 hPa | 0 mm | - | - | - |
| 1777664792 | 8.89° C | 88% | 1027.5 hPa | 0 mm | - | - | - |
| 1777664528 | 9.44° C | 85% | 1027.4 hPa | 0 mm | - | - | - |
| 1777664253 | 9.44° C | 82% | 1027.4 hPa | 0 mm | - | - | - |
| 1777663993 | 9.44° C | 78% | 1027.4 hPa | 0 mm | - | - | - |
| 1777663706 | 10° C | 75% | 1027.4 hPa | 0 mm | - | - | - |
| 1777663438 | 10.56° C | 69% | 1027.4 hPa | 0 mm | - | - | - |
| 1777663173 | 10.56° C | 61% | 1027.3 hPa | 0 mm | - | - | - |
| 1777662901 | 10.56° C | 59% | 1027.3 hPa | 0 mm | - | - | - |
| 1777662635 | 11.11° C | 58% | 1027.2 hPa | 0 mm | - | - | - |
| 1777662347 | 11.67° C | 56% | 1027.2 hPa | 0 mm | - | - | - |
| 1777662097 | 11.67° C | 55% | 1027.1 hPa | 0 mm | - | - | - |
| 1777661818 | 12.22° C | 55% | 1027.1 hPa | 0 mm | - | - | - |
| 1777661539 | 12.22° C | 55% | 1027.1 hPa | 0 mm | - | - | - |
| 1777661282 | 12.22° C | 52% | 1027.1 hPa | 0 mm | - | - | - |
| 1777661023 | 12.22° C | 52% | 1027.1 hPa | 0 mm | - | - | - |
| 1777660747 | 12.78° C | 50% | 1027.1 hPa | 0 mm | - | - | - |
| 1777660478 | 13.33° C | 49% | 1027 hPa | 0 mm | - | - | - |
* Rain latest hour (hover to see other rain measurements)
** Current wind speed in m/s (hover to see current wind gust speed)